| time (UTC) | temp C | wind direction | speed KPH | gust KPH | rain 1hr cm | rain 24hr cm | rain mn cm | humidity % | barometer mb |
| 20260504201044 | 12 | 28 | 3.2 | 9.7 | 0.00 | 1.02 | 0.38 | 86 | 1015.3 |
| 20260504200544 | 12 | 54 | 4.8 | 9.7 | 0.00 | 1.02 | 0.38 | 86 | 1015.2 |
| 20260504200104 | 12 | 72 | 4.8 | 11.3 | 0.00 | 1.02 | 0.38 | 86 | 1015.2 |
| 20260504195545 | 12 | 27 | 6.4 | 11.3 | 0.00 | 1.02 | 0.38 | 86 | 1015.1 |
| 20260504195045 | 12 | 47 | 3.2 | 6.4 | 0.00 | 1.02 | 0.38 | 86 | 1015.1 |
| 20260504194550 | 12 | 68 | 3.2 | 6.4 | 0.00 | 1.02 | 0.38 | 86 | 1015.1 |
| 20260504194043 | 12 | 63 | 1.6 | 4.8 | 0.00 | 1.02 | 0.38 | 85 | 1014.9 |
| 20260504193542 | 12 | 39 | 0.0 | 6.4 | 0.00 | 1.02 | 0.38 | 85 | 1015.0 |
| 20260504193049 | 12 | 27 | 3.2 | 6.4 | 0.00 | 1.02 | 0.38 | 85 | 1014.8 |
| 20260504192531 | 12 | 38 | 1.6 | 8.0 | 0.00 | 1.02 | 0.38 | 85 | 1014.8 |
| 20260504192046 | 12 | 49 | 1.6 | 8.0 | 0.00 | 1.02 | 0.38 | 85 | 1014.8 |
| 20260504191532 | 12 | 25 | 0.0 | 4.8 | 0.00 | 1.02 | 0.38 | 85 | 1014.8 |
| 20260504191047 | 13 | 52 | 1.6 | 6.4 | 0.00 | 1.02 | 0.38 | 85 | 1014.8 |
| 20260504190528 | 13 | 54 | 1.6 | 6.4 | 0.00 | 1.02 | 0.38 | 84 | 1014.8 |
| 20260504185527 | 13 | 56 | 3.2 | 11.3 | 0.00 | 1.02 | 0.38 | 84 | 1014.6 |
| 20260504185037 | 13 | 69 | 8.0 | 11.3 | 0.00 | 1.02 | 0.38 | 84 | 1014.6 |
| 20260504184526 | 13 | 59 | 6.4 | 11.3 | 0.00 | 1.02 | 0.38 | 84 | 1014.6 |
| 20260504184037 | 13 | 51 | 6.4 | 11.3 | 0.00 | 1.02 | 0.38 | 84 | 1014.6 |
| 20260504183525 | 13 | 82 | 3.2 | 8.0 | 0.00 | 1.02 | 0.38 | 84 | 1014.4 |
| 20260504183354 | 13 | 66 | 3.2 | 6.4 | 0.00 | 1.02 | 0.38 | 84 | 1014.3 |
| 20260504182807 | 13 | 52 | 4.8 | 6.4 | 0.00 | 1.02 | 0.38 | 84 | 1014.4 |
| 20260504182035 | 13 | 38 | 3.2 | 4.8 | 0.00 | 1.02 | 0.38 | 85 | 1014.4 |
| 20260504181815 | 13 | 63 | 1.6 | 4.8 | 0.00 | 1.02 | 0.38 | 85 | 1014.3 |
| 20260504181036 | 13 | 62 | 3.2 | 6.4 | 0.00 | 1.02 | 0.38 | 84 | 1014.3 |
| 20260504180515 | 13 | 51 | 3.2 | 6.4 | 0.00 | 1.02 | 0.38 | 84 | 1014.2 |
| 20260504180052 | -17 | 20 | 4.8 | 6.4 | 0.00 | 1.02 | 0.38 | 1014.2 | |
| 20260504175515 | -17 | 28 | 3.2 | 4.8 | 0.00 | 1.02 | 0.38 | 1014.2 | |
| 20260504175034 | -17 | 83 | 1.6 | 1.6 | 0.00 | 1.02 | 0.38 | 1014.2 | |
| 20260504174522 | -17 | 78 | 8.0 | 8.0 | 0.00 | 1.02 | 0.38 | 1014.1 | |
| 20260504174037 | -17 | 78 | 8.0 | 8.0 | 0.00 | 1.02 | 0.38 | 1014.2 | |
| 20260504173515 | 13 | 61 | 6.4 | 6.4 | 0.00 | 1.02 | 0.38 | 83 | 1014.2 |
| 20260504173343 | 13 | 0.0 | 0.0 | 0.00 | 1.02 | 0.38 | 83 | 1014.0 | |
| 20260504172516 | 13 | 51 | 14.5 | 14.5 | 0.00 | 1.02 | 0.38 | 83 | 1014.1 |
| 20260504172033 | 13 | 51 | 14.5 | 14.5 | 0.00 | 1.02 | 0.38 | 83 | 1014.1 |
| 20260504171527 | 13 | 16 | 6.4 | 11.3 | 0.00 | 1.02 | 0.38 | 83 | 1014.2 |
| 20260504171038 | 13 | 56 | 8.0 | 11.3 | 0.00 | 1.02 | 0.38 | 83 | 1014.1 |
| 20260504170528 | 13 | 76 | 11.3 | 11.3 | 0.00 | 1.02 | 0.38 | 83 | 1014.1 |
| 20260504150444 | 12 | 0.0 | 0.0 | 0.00 | 1.02 | 0.38 | 86 | 1014.9 | |
| 20260504140937 | 13 | 0.0 | 0.0 | 0.00 | 1.02 | 0.38 | 85 | 1015.0 | |
| 20260504140639 | 13 | 0.0 | 0.0 | 0.00 | 1.02 | 0.38 | 85 | 1015.0 | |
| 20260504140604 | 13 | 0.0 | 0.0 | 0.00 | 1.02 | 0.38 | 85 | 1015.0 | |
| 20260504130437 | 14 | 0.0 | 0.0 | 0.00 | 1.02 | 0.38 | 85 | 1014.8 | |
| 20260504110424 | 12 | 0.0 | 0.0 | 0.00 | 1.02 | 0.38 | 90 | 1014.8 | |
| 20260504100413 | 11 | 0.0 | 0.0 | 0.00 | 1.02 | 0.38 | 92 | 1014.9 | |
| 20260504081645 | 11 | 0.0 | 0.0 | 0.00 | 1.02 | 0.38 | 93 | 1014.2 | |
| 20260504080842 | 11 | 0.0 | 0.0 | 0.00 | 1.02 | 0.38 | 94 | 1014.1 | |
| 20260504080631 | 10 | 0.0 | 0.0 | 0.00 | 1.02 | 0.38 | 93 | 1014.1 | |
| 20260504070328 | 10 | 0.0 | 0.0 | 0.00 | 1.02 | 0.38 | 93 | 1013.8 | |
| 20260504060210 | 10 | 0.0 | 0.0 | 0.00 | 1.02 | 0.38 | 93 | 1013.0 | |
| 20260504050311 | 10 | 72 | 3.2 | 9.7 | 0.00 | 1.02 | 0.38 | 92 | 1012.5 |
| 20260504045813 | 10 | 24 | 4.8 | 9.7 | 0.00 | 1.02 | 0.38 | 92 | 1012.4 |
| 20260504045313 | 10 | 51 | 4.8 | 11.3 | 0.00 | 1.02 | 0.38 | 92 | 1012.4 |
| 20260504044813 | 10 | 45 | 1.6 | 11.3 | 0.00 | 1.02 | 0.38 | 92 | 1012.3 |
| 20260504044313 | 10 | 31 | 3.2 | 11.3 | 0.00 | 1.02 | 0.38 | 92 | 1012.3 |
| 20260504044140 | 10 | 63 | 6.4 | 14.5 | 0.00 | 1.02 | 0.38 | 92 | 1012.3 |
| 20260504043310 | 10 | 54 | 9.7 | 14.5 | 0.00 | 1.02 | 0.38 | 92 | 1012.3 |
| 20260504042810 | 10 | 47 | 4.8 | 8.0 | 0.00 | 1.02 | 0.38 | 92 | 1012.2 |
| 20260504042309 | 10 | 49 | 0.0 | 6.4 | 0.00 | 1.02 | 0.38 | 92 | 1012.3 |
| 20260504041809 | 10 | 4 | 1.6 | 8.0 | 0.00 | 1.02 | 0.38 | 92 | 1012.4 |
| 20260504041311 | 10 | 58 | 1.6 | 8.0 | 0.00 | 1.02 | 0.38 | 92 | 1012.4 |
| 20260504040809 | 11 | 61 | 3.2 | 11.3 | 0.00 | 1.02 | 0.38 | 92 | 1012.3 |
| 20260504040309 | 11 | 49 | 6.4 | 11.3 | 0.00 | 1.02 | 0.38 | 92 | 1012.3 |
| 20260504035809 | 11 | 35 | 8.0 | 11.3 | 0.00 | 1.02 | 0.38 | 92 | 1012.3 |
| 20260504035600 | 11 | 28 | 3.2 | 8.0 | 0.00 | 1.02 | 0.38 | 92 | 1012.3 |
| 20260504034808 | 11 | 31 | 3.2 | 8.0 | 0.00 | 1.02 | 0.38 | 92 | 1012.1 |
| 20260504034308 | 11 | 52 | 0.0 | 8.0 | 0.00 | 1.02 | 0.38 | 92 | 1012.1 |
| 20260504033808 | 11 | 58 | 3.2 | 11.3 | 0.00 | 1.02 | 0.38 | 92 | 1012.1 |
| 20260504033310 | 11 | 56 | 6.4 | 14.5 | 0.00 | 1.02 | 0.38 | 92 | 1012.2 |
| 20260504032808 | 11 | 35 | 6.4 | 14.5 | 0.00 | 1.02 | 0.38 | 92 | 1012.1 |
| 20260504032311 | 11 | 51 | 6.4 | 11.3 | 0.00 | 1.02 | 0.38 | 92 | 1012.1 |
| 20260504031810 | 11 | 37 | 3.2 | 11.3 | 0.00 | 1.02 | 0.38 | 92 | 1012.1 |
| 20260504031308 | 11 | 25 | 1.6 | 9.7 | 0.00 | 1.02 | 0.38 | 92 | 1012.1 |
| 20260504031137 | 11 | 47 | 3.2 | 6.4 | 0.00 | 1.02 | 0.38 | 92 | 1012.1 |
| 20260504030308 | 11 | 44 | 3.2 | 8.0 | 0.00 | 1.02 | 0.38 | 92 | 1012.0 |
| 20260504025808 | 11 | 38 | 4.8 | 8.0 | 0.00 | 1.02 | 0.38 | 92 | 1012.0 |
| 20260504025617 | 11 | 41 | 1.6 | 9.7 | 0.00 | 1.02 | 0.38 | 92 | 1012.0 |
| 20260504024809 | 11 | 6 | 3.2 | 11.3 | 0.00 | 1.02 | 0.38 | 92 | 1012.0 |
| 20260504024306 | 11 | 353 | 4.8 | 11.3 | 0.00 | 1.02 | 0.38 | 92 | 1011.8 |
| 20260504023808 | 11 | 45 | 3.2 | 9.7 | 0.00 | 1.02 | 0.38 | 92 | 1011.8 |
| 20260504023309 | 11 | 41 | 3.2 | 9.7 | 0.00 | 1.02 | 0.38 | 92 | 1011.8 |
| 20260504022807 | 11 | 48 | 1.6 | 14.5 | 0.00 | 1.02 | 0.38 | 92 | 1011.7 |
| 20260504022307 | 11 | 27 | 3.2 | 14.5 | 0.00 | 1.02 | 0.38 | 92 | 1011.7 |
| 20260504022133 | 11 | 42 | 1.6 | 8.0 | 0.00 | 1.02 | 0.38 | 92 | 1011.7 |
| 20260504021307 | 11 | 47 | 3.2 | 9.7 | 0.00 | 1.02 | 0.38 | 92 | 1011.7 |
| 20260504020807 | 11 | 51 | 4.8 | 9.7 | 0.00 | 1.02 | 0.38 | 92 | 1011.6 |
| 20260504020608 | 11 | 45 | 6.4 | 8.0 | 0.00 | 1.02 | 0.38 | 92 | 1011.7 |
| 20260504015807 | 11 | 59 | 4.8 | 9.7 | 0.00 | 1.02 | 0.38 | 92 | 1011.7 |
| 20260504015603 | 12 | 58 | 4.8 | 9.7 | 0.00 | 1.02 | 0.38 | 92 | 1011.7 |
| 20260504014808 | 12 | 58 | 1.6 | 11.3 | 0.00 | 1.02 | 0.38 | 91 | 1011.7 |
| 20260504014308 | 12 | 49 | 4.8 | 11.3 | 0.00 | 1.02 | 0.38 | 91 | 1011.7 |
| 20260504014136 | 12 | 55 | 3.2 | 6.4 | 0.00 | 1.02 | 0.38 | 91 | 1011.8 |
| 20260504013613 | 12 | 54 | 1.6 | 9.7 | 0.00 | 1.02 | 0.38 | 91 | 1011.8 |
| 20260504013142 | 12 | 52 | 3.2 | 9.7 | 0.00 | 1.02 | 0.38 | 91 | 1011.8 |
| 20260504012307 | 12 | 52 | 3.2 | 9.7 | 0.00 | 1.02 | 0.38 | 91 | 1011.8 |
| 20260504011807 | 12 | 51 | 3.2 | 8.0 | 0.00 | 1.02 | 0.38 | 91 | 1011.7 |
| 20260504011309 | 12 | 0 | 3.2 | 8.0 | 0.00 | 1.02 | 0.38 | 91 | 1011.7 |
| 20260504010807 | 12 | 347 | 3.2 | 8.0 | 0.03 | 1.02 | 0.38 | 91 | 1011.8 |
| 20260504010307 | 12 | 0 | 1.6 | 8.0 | 0.05 | 1.02 | 0.38 | 91 | 1011.8 |
| 20260504005808 | 12 | 13 | 1.6 | 8.0 | 0.08 | 0.94 | 0.38 | 91 | 1011.8 |
| 20260504005308 | 12 | 14 | 3.2 | 8.0 | 0.18 | 0.94 | 0.38 | 91 | 1011.7 |
| 20260504004807 | 12 | 37 | 3.2 | 6.4 | 0.23 | 0.94 | 0.38 | 91 | 1011.7 |
| 20260504004308 | 12 | 0 | 1.6 | 4.8 | 0.28 | 0.94 | 0.38 | 91 | 1011.8 |
| 20260504004134 | 12 | 13 | 0.0 | 6.4 | 0.33 | 0.94 | 0.38 | 90 | 1011.9 |
| 20260504003306 | 12 | 10 | 1.6 | 6.4 | 0.33 | 0.94 | 0.38 | 90 | 1011.9 |
| 20260504002807 | 12 | 6 | 3.2 | 6.4 | 0.33 | 0.94 | 0.38 | 90 | 1011.8 |
| 20260504002306 | 12 | 14 | 1.6 | 8.0 | 0.33 | 0.94 | 0.38 | 90 | 1011.8 |
| 20260504002132 | 12 | 13 | 1.6 | 8.0 | 0.33 | 0.94 | 0.38 | 90 | 1011.8 |
| 20260504001307 | 12 | 0 | 3.2 | 8.0 | 0.33 | 0.94 | 0.36 | 90 | 1011.8 |
| 20260504000807 | 12 | 0 | 1.6 | 6.4 | 0.36 | 0.94 | 0.36 | 90 | 1011.8 |
| 20260504000308 | 12 | 52 | 3.2 | 6.4 | 0.33 | 0.94 | 0.33 | 90 | 1011.7 |
| 20260503235807 | 12 | 45 | 0.0 | 3.2 | 0.30 | 0.64 | 0.28 | 89 | 1011.8 |
| 20260503235308 | 12 | 45 | 1.6 | 3.2 | 0.23 | 0.64 | 0.18 | 89 | 1011.9 |
| 20260503234807 | 12 | 45 | 0.0 | 3.2 | 0.20 | 0.64 | 0.15 | 89 | 1011.8 |
| 20260503234306 | 12 | 45 | 0.0 | 1.6 | 0.18 | 0.64 | 0.10 | 89 | 1011.7 |
| 20260503233806 | 12 | 45 | 0.0 | 1.6 | 0.15 | 0.64 | 0.05 | 89 | 1011.8 |
| 20260503233306 | 12 | 45 | 0.0 | 4.8 | 0.25 | 0.64 | 0.05 | 89 | 1011.7 |
| 20260503232807 | 12 | 45 | 0.0 | 6.4 | 0.53 | 0.64 | 0.05 | 88 | 1011.7 |
| 20260503232603 | 12 | 42 | 1.6 | 6.4 | 0.71 | 0.64 | 0.05 | 88 | 1011.5 |
| 20260503231807 | 12 | 42 | 1.6 | 6.4 | 0.71 | 0.64 | 0.05 | 88 | 1011.5 |
| 20260503231306 | 12 | 42 | 3.2 | 8.0 | 0.69 | 0.64 | 0.05 | 88 | 1011.6 |
| 20260503230808 | 13 | 35 | 4.8 | 8.0 | 0.64 | 0.64 | 0.00 | 88 | 1011.6 |
| 20260503230309 | 13 | 44 | 1.6 | 6.4 | 0.64 | 0.64 | 0.00 | 88 | 1011.4 |
| 20260503225809 | 13 | 51 | 1.6 | 8.0 | 0.64 | 0.00 | 0.61 | 87 | 1011.4 |
| 20260503225310 | 13 | 58 | 4.8 | 8.0 | 0.61 | 0.00 | 0.61 | 87 | 1011.4 |
| 20260503224807 | 13 | 56 | 4.8 | 8.0 | 0.61 | 0.00 | 0.61 | 87 | 1011.4 |
| 20260503224307 | 13 | 75 | 4.8 | 8.0 | 0.56 | 0.00 | 0.56 | 87 | 1011.4 |
| 20260503223808 | 13 | 59 | 3.2 | 8.0 | 0.53 | 0.00 | 0.51 | 86 | 1011.4 |
| 20260503223307 | 13 | 302 | 3.2 | 14.5 | 0.43 | 0.00 | 0.38 | 86 | 1011.3 |
| 20260503223201 | 13 | 255 | 6.4 | 14.5 | 0.15 | 0.00 | 0.10 | 85 | 1011.5 |
| 20260503222306 | 13 | 245 | 4.8 | 9.7 | 0.00 | 0.00 | 0.00 | 83 | 1011.5 |
| 20260503221808 | 13 | 47 | 6.4 | 9.7 | 0.00 | 0.00 | 0.00 | 83 | 1011.2 |
| 20260503221305 | 13 | 44 | 4.8 | 9.7 | 0.00 | 0.00 | 0.00 | 82 | 1010.9 |
| 20260503220806 | 13 | 0 | 1.6 | 3.2 | 0.00 | 0.00 | 0.00 | 81 | 1010.9 |
| 20260503220304 | 13 | 0 | 1.6 | 3.2 | 0.00 | 0.00 | 0.00 | 81 | 1010.7 |
| 20260503215806 | 13 | 0 | 0.0 | 3.2 | 0.00 | 0.00 | 0.00 | 81 | 1010.7 |
| 20260503215305 | 13 | 0 | 0.0 | 4.8 | 0.00 | 0.00 | 0.00 | 81 | 1010.7 |
| 20260503215136 | 13 | 0 | 3.2 | 4.8 | 0.00 | 0.00 | 0.00 | 81 | 1010.6 |
| 20260503214303 | 13 | 0 | 0.0 | 6.4 | 0.00 | 0.00 | 0.00 | 80 | 1010.6 |
| 20260503213804 | 13 | 0 | 3.2 | 6.4 | 0.00 | 0.00 | 0.00 | 81 | 1010.7 |
| 20260503213304 | 13 | 317 | 1.6 | 4.8 | 0.00 | 0.00 | 0.00 | 80 | 1010.6 |
| 20260503212804 | 13 | 316 | 0.0 | 6.4 | 0.00 | 0.00 | 0.00 | 80 | 1010.5 |
| 20260503212305 | 13 | 316 | 0.0 | 6.4 | 0.00 | 0.00 | 0.00 | 80 | 1010.6 |
| 20260503212136 | 13 | 306 | 0.0 | 1.6 | 0.00 | 0.00 | 0.00 | 79 | 1010.6 |
| 20260503211618 | 13 | 306 | 0.0 | 0.0 | 0.00 | 0.00 | 0.00 | 79 | 1010.6 |
| 20260503210805 | 13 | 306 | 0.0 | 0.0 | 0.00 | 0.00 | 0.00 | 79 | 1010.5 |
| 20260503210302 | 13 | 306 | 0.0 | 0.0 | 0.00 | 0.00 | 0.00 | 79 | 1010.5 |
| 20260503205803 | 13 | 306 | 0.0 | 0.0 | 0.00 | 0.00 | 0.00 | 78 | 1010.5 |
| 20260503205304 | 13 | 306 | 0.0 | 0.0 | 0.00 | 0.00 | 0.00 | 78 | 1010.3 |
| 20260503204803 | 13 | 306 | 0.0 | 0.0 | 0.00 | 0.00 | 0.00 | 79 | 1010.3 |
| 20260503204301 | 14 | 306 | 0.0 | 0.0 | 0.00 | 0.00 | 0.00 | 78 | 1010.2 |
| 20260503203904 | 14 | 306 | 0.0 | 0.0 | 0.00 | 0.00 | 0.00 | 77 | 1010.3 |
| 20260503203841 | 14 | 306 | 0.0 | 0.0 | 0.00 | 0.00 | 0.00 | 77 | 1010.3 |
| 20260503203142 | 14 | 306 | 0.0 | 0.0 | 0.00 | 0.00 | 0.00 | 77 | 1010.2 |
| 20260503202300 | 15 | 306 | 0.0 | 0.0 | 0.00 | 0.00 | 0.00 | 76 | 1010.2 |
| 20260503201802 | 15 | 306 | 0.0 | 0.0 | 0.00 | 0.00 | 0.00 | 75 | 1010.1 |